Location: Beuvrequen
(50.8014°N, 1.6652°E)
Time: 02:38:39
(UTC+00:00)

Cosmos 2278 Rocket - Pass Details

Date: 16 October 2021
Orbit: 841 x 845 km, 71.0° (Epoch: 05 December)

Event Time Altitude Azimuth Distance (km) Brightness Sun altitude
Rises 21:23:16 0° 331° (NNW) 3,418 6.2 -39.9°
Reaches altitude 10° 21:25:45 10° 334° (NNW) 2,478 5.2 -40.2°
Enters shadow 21:27:35 21° 338° (NNW) 1,812 4.3 -40.4°
